Weather History for KBQP - November, 2012

Change the Weather History Date:

Thursday, November 22, 2012

  Actual Average (KMLU) Record (KMLU)
Temperature  
Mean Temperature 65 °F 54 °F  
Max Temperature 77 °F 66 °F 80 °F (1931)
Min Temperature 53 °F 43 °F 24 °F (1964)
Degree Days  
Heating Degree Days 0 11  
Month to date heating degree days 181  
Since 1 July heating degree days 271  
Cooling Degree Days 0 0  
Month to date cooling degree days 22  
Year to date cooling degree days 2506  
Growing Degree Days 15 (Base 50)    
Moisture  
Dew Point 44 °F    
Average Humidity 50    
Maximum Humidity 78    
Minimum Humidity 24    
Precipitation  
Precipitation 0.00 in 0.16 in 2.65 in (1979)
Month to date precipitation 3.44  
Year to date precipitation 47.33  
Snow  
Snow 0.00 in - - ()
Month to date snowfall  
Since 1 July snowfall  
Since 1 September snowfall  
Snow Depth -    
Sea Level Pressure  
Sea Level Pressure 30.18 in    
Wind  
Wind Speed 1 mph (South)    
Max Wind Speed 9 mph    
Max Gust Speed -    
Visibility 7 miles    
Events Fog    
T = Trace of Precipitation, MM = Missing Value Source: NWS Daily Summary

Daily Weather History Graph

Daily Weather History Graph

Search for Another Location

Airport or City:

Trip Planner

Search our weather history database for the weather conditions in past years. The results will help you decide how hot, cold, wet, or windy it might be!

Date:

Astronomy

Nov. 22, 2012 Rise Set
Actual Time 6:44 AM CST 5:02 PM CST
Civil Twilight 6:17 AM CST 5:29 PM CST
Nautical Twilight 5:47 AM CST 5:59 PM CST
Astronomical Twilight 5:18 AM CST 6:29 PM CST
Moon 1:34 PM CST (11/22) 1:20 AM CST (11/22)
Length of Visible Light 11h 11m
Length of Day
10h 18m
Waxing Gibbous, 71% of the Moon is Illuminated
Nov 22
Waxing Gibbous
Nov 28
Full
Dec 6
Last Quarter
Dec 13
New
Dec 19
First Quarter

Hourly Weather History & Observations

Time (CST) Temp. Dew Point Humidity Pressure Visibility Wind Dir Wind Speed Gust Speed Precip Events Conditions
12:15 AM - - N/A% 30.21 in 1.5 mi Calm Calm - N/A   Mist
12:35 AM - - N/A% 30.20 in 5.0 mi Calm Calm - N/A   Haze
12:55 AM - - N/A% 30.20 in 4.0 mi Calm Calm - N/A   Haze
1:15 AM - - N/A% 30.20 in 2.5 mi Calm Calm - N/A   Clear
1:35 AM - - N/A% 30.20 in 5.0 mi Calm Calm - N/A   Haze
1:55 AM - - N/A% 30.20 in 1.8 mi Calm Calm - N/A   Mist
2:15 AM - - N/A% 30.20 in 1.8 mi Calm Calm - N/A   Mist
2:35 AM - - N/A% 30.20 in 2.0 mi Calm Calm - N/A   Clear
2:55 AM - - N/A% 30.20 in 3.0 mi Calm Calm - N/A   Clear
3:15 AM - - N/A% 30.20 in 2.5 mi Calm Calm - N/A   Clear
3:35 AM - - N/A% 30.20 in 1.8 mi Calm Calm - N/A   Mist
3:55 AM - - N/A% 30.20 in 0.8 mi Calm Calm - N/A   Mist
4:15 AM - - N/A% 30.20 in 0.2 mi Calm Calm - N/A Fog Fog
4:35 AM - - N/A% 30.20 in 1.0 mi Calm Calm - N/A   Mist
4:55 AM - - N/A% 30.20 in 1.8 mi Calm Calm - N/A   Mist
5:15 AM - - N/A% 30.19 in 4.0 mi Calm Calm - N/A   Haze
5:35 AM - - N/A% 30.20 in 2.5 mi Calm Calm - N/A   Clear
5:55 AM - - N/A% 30.20 in 2.0 mi Calm Calm - N/A   Clear
6:15 AM - - N/A% 30.20 in 2.5 mi Calm Calm - N/A   Clear
6:35 AM - - N/A% 30.21 in 2.5 mi Calm Calm - N/A   Clear
6:55 AM - - N/A% 30.21 in 0.5 mi Calm Calm - N/A Fog Fog
7:15 AM - - N/A% 30.22 in 1.2 mi Calm Calm - N/A   Mist
7:35 AM - - N/A% 30.22 in 2.5 mi Calm Calm - N/A   Clear
7:55 AM - - N/A% 30.22 in 3.0 mi Calm Calm - N/A   Clear
8:15 AM - - N/A% 30.23 in 7.0 mi Calm Calm - N/A   Clear
8:35 AM - - N/A% 30.24 in 7.0 mi Calm Calm - N/A   Clear
8:55 AM 59.5 °F 52.7 °F 78% 30.24 in 10.0 mi Calm Calm - N/A   Clear
9:15 AM 58.8 °F 50.4 °F 73% 30.25 in 10.0 mi Calm Calm - N/A   Clear
9:35 AM 62.8 °F 51.6 °F 67% 30.25 in 10.0 mi Calm Calm - N/A   Clear
9:55 AM 65.3 °F 50.5 °F 59% 30.25 in 10.0 mi Calm Calm - N/A   Clear
10:15 AM 66.7 °F 50.0 °F 55% 30.25 in 10.0 mi Calm Calm - N/A   Clear
10:35 AM 68.7 °F 49.1 °F 50% 30.25 in 10.0 mi South 4.6 mph - N/A   Clear
10:55 AM 70.5 °F 47.3 °F 44% 30.24 in 10.0 mi SSE 4.6 mph - N/A   Clear
11:15 AM 70.7 °F 47.1 °F 43% 30.23 in 10.0 mi South 4.6 mph - N/A   Clear
11:35 AM 73.4 °F 43.9 °F 35% 30.22 in 10.0 mi SSW 4.6 mph - N/A   Clear
11:55 AM 73.9 °F 42.8 °F 33% 30.21 in 10.0 mi South 5.8 mph - N/A   Clear
12:15 PM 74.1 °F 42.3 °F 32% 30.19 in 10.0 mi SSE 6.9 mph - N/A   Clear
12:35 PM 74.1 °F 43.0 °F 33% 30.18 in 10.0 mi South 6.9 mph - N/A   Clear
12:55 PM 75.0 °F 42.4 °F 31% 30.18 in 10.0 mi SSW 5.8 mph - N/A   Clear
1:15 PM 75.7 °F 40.6 °F 28% 30.16 in 10.0 mi South 9.2 mph - N/A   Clear
1:35 PM 76.3 °F 39.2 °F 26% 30.16 in 10.0 mi South 6.9 mph - N/A   Clear
1:55 PM 76.5 °F 38.7 °F 26% 30.15 in 10.0 mi Calm Calm - N/A   Clear
2:15 PM 76.8 °F 37.8 °F 24% 30.15 in 10.0 mi WSW 5.8 mph - N/A   Clear
2:35 PM 76.3 °F 39.4 °F 26% 30.14 in 10.0 mi SW 5.8 mph - N/A   Clear
2:55 PM 77.0 °F 39.0 °F 25% 30.14 in 10.0 mi Calm Calm - N/A   Clear
3:15 PM 76.3 °F 37.6 °F 25% 30.13 in 10.0 mi SW 5.8 mph - N/A   Clear
3:35 PM 76.3 °F 38.3 °F 25% 30.13 in 10.0 mi Calm Calm - N/A   Clear
3:55 PM 75.4 °F 36.3 °F 24% 30.13 in 10.0 mi SSW 5.8 mph - N/A   Clear
4:15 PM 73.4 °F 38.5 °F 28% 30.14 in 10.0 mi Calm Calm - N/A   Clear
4:35 PM 70.2 °F 39.6 °F 33% 30.14 in 10.0 mi Calm Calm - N/A   Clear
4:55 PM 65.1 °F 43.2 °F 45% 30.13 in 10.0 mi Calm Calm - N/A   Clear
5:15 PM 60.6 °F 44.6 °F 56% 30.14 in 10.0 mi Calm Calm - N/A   Clear
5:35 PM 59.7 °F 45.5 °F 59% 30.14 in 10.0 mi Calm Calm - N/A   Clear
5:55 PM 58.1 °F 45.7 °F 63% 30.13 in 10.0 mi Calm Calm - N/A   Clear
6:15 PM 60.3 °F 43.3 °F 54% 30.13 in 10.0 mi Calm Calm - N/A   Clear
6:35 PM 59.4 °F 43.9 °F 57% 30.14 in 10.0 mi Calm Calm - N/A   Clear
6:55 PM 57.2 °F 45.0 °F 64% 30.15 in 10.0 mi Calm Calm - N/A   Clear
7:15 PM 56.5 °F 43.5 °F 62% 30.15 in 10.0 mi Calm Calm - N/A   Clear
7:55 PM 55.8 °F 44.6 °F 66% 30.15 in 10.0 mi Calm Calm - N/A   Clear
8:15 PM 54.5 °F 44.4 °F 69% 30.15 in 10.0 mi Calm Calm - N/A   Clear
8:35 PM 53.2 °F 44.6 °F 72% 30.15 in 10.0 mi Calm Calm - N/A   Clear
8:55 PM 55.4 °F 45.1 °F 68% 30.17 in 10.0 mi Calm Calm - N/A   Clear
9:15 PM 54.5 °F 45.1 °F 71% 30.16 in 10.0 mi Calm Calm - N/A   Clear
9:35 PM 59.4 °F 44.8 °F 58% 30.17 in 10.0 mi Calm Calm - N/A   Clear
9:55 PM 60.3 °F 44.6 °F 56% 30.17 in 10.0 mi Calm Calm - N/A   Clear
10:15 PM 59.0 °F 44.6 °F 59% 30.16 in 10.0 mi Calm Calm - N/A   Clear
10:35 PM 59.2 °F 44.8 °F 59% 30.17 in 10.0 mi Calm Calm - N/A   Clear
10:55 PM 56.5 °F 44.8 °F 65% 30.18 in 10.0 mi Calm Calm - N/A   Clear
11:15 PM 53.6 °F 45.7 °F 75% 30.18 in 10.0 mi Calm Calm - N/A   Clear
11:35 PM 55.4 °F 45.3 °F 69% 30.17 in 10.0 mi Calm Calm - N/A   Clear
11:55 PM 55.6 °F 45.7 °F 69% 30.17 in 10.0 mi Calm Calm - N/A   Clear